星链-4263 (STARLINK-4263 )

导读 | 星芒AI

STARLINK-4263 是 SpaceX Starlink 项目中的一颗低轨通信卫星,属于第 20 批 Starlink 卫星(Group 20)。该卫星于 2022 年 9 月发射,运行在约 550 公里的轨道高度,旨在为全球用户提供高速互联网服务。Starlink 卫星采用先进推进系统,具备自主变轨和避碰能力,提升了空间安全性和网络稳定性。该项目致力于构建全球覆盖的卫星互联网网络,尤其服务于偏远地区。

基本信息
目录编号:
53010
目录名称:
STARLINK-4263
国际标识:
2022-076AA
轨道中心:
EARTH
卫星名称:
星链-4263
卫星全名:
星链-4263 (STARLINK-4263 )
卫星状态:
在轨 (已飞行1263 天)
发射日期:
2022-07-07 UTC
国别 :
美国 (US)
星等 :
--
轨道信息
数据来源 国际轨道数据
星历时间: 2025-12-20T20:57:21+0800
17小时前
查看轨道信息
半长轴: 6917.877km
偏心率: 0.0001391
轨道倾角: 53.218°
近地点辐角 91.934°
升交点赤经 89.169°
平近点角 268.181°
近地点: 538.777km
远地点: 540.703km
周期: 95.437分钟
每日圈数: 15.088412
详细信息
固有亮度:
5
最大亮度:
2.5
卫星平台:
Starlink v1.5
覆盖范围:
全球
运营商:
太空探索技术公司
运营商所在国:
美国
制造商(研发单位):
太空探索技术公司
制造商所在国:
美国
使用方式:
暂无
卫星简介
星链(Starlink)计划是由太空探索技术公司(SpaceX)提出的一个巨型低轨卫星互联网星座项目,计划在2019年至2024年间在太空搭建由约1.2万颗卫星组成的“星链”网络,其中1584颗将部署在地球上空550千米处的近地轨道,并从2020年开始工作。该卫星仍在工作。
2D轨道图
3D轨道图
轨道高度分析图
轨道倾角分析图
轨道综合分析图
查看轨道综合分析图